Skip Page Navigation
NASA JPL Caltech
NASA Logo - Jet Propulsion Laboratory + View the NASA Portal
+ Center for Near-Earth Object Studies
JPL Home Earth Solar System Stars & Galaxies Technology
JPL Solar System Dynamics
BODIES ORBITS EPHEMERIDES TOOLS PHYSICAL DATA DISCOVERY FAQ SITE MAP
JPL Small-Body Database Browser
Search: [ help ]  
160530 (1996 TE16)
Classification: Main-belt Asteroid          SPK-ID: 2160530
Ephemeris | Orbit Diagram | Orbital Elements | Mission Design | Physical Parameters | Discovery Circumstances | Close-Approach Data ]

[ show orbit diagram ]
Orbital Elements at Epoch 2459200.5 (2020-Dec-17.0) TDB
Reference: JPL 25 (heliocentric ecliptic J2000)
 Element Value Uncertainty (1-sigma)   Units 
e .03892874896221175 3.828e-08  
a 2.762566670089198 1.853e-08 au
q 2.655023405697923 1.0297e-07 au
i 5.15792156762154 4.2131e-06 deg
node 275.454357376449 5.0165e-05 deg
peri 119.5584671549757 8.8791e-05 deg
M 67.05460793618724 7.1052e-05 deg
tp 2458888.112458371625
(2020-Feb-08.61245837)
0.00033114 TDB
period 1677.133286548146
4.59
1.6874e-05
4.62e-08
d
yr
n .2146519915187822 2.1596e-09 deg/d
Q 2.870109934480474 1.9251e-08 au
  Orbit Determination Parameters
   # obs. used (total)      563  
   data-arc span      8898 days (24.36 yr)  
   first obs. used      1996-10-04  
   last obs. used      2021-02-13  
   planetary ephem.      DE441  
   SB-pert. ephem.      SB441-N16  
   condition code      0  
   norm. resid. RMS      .51684  
   source      ORB  
   producer      Otto Matic  
   solution date      2021-Apr-13 20:01:44  

Additional Information
 Earth MOID = 1.66525 au 
 Jupiter MOID = 2.32063 au 
 T_jup = 3.334 
[ show covariance matrix ]

Ephemeris | Orbit Diagram | Orbital Elements | Mission Design | Physical Parameters | Discovery Circumstances | Close-Approach Data ]

Physical Parameter Table
Parameter Symbol Value Units Sigma Reference Notes
absolute magnitude H 15.7   n/a MPO502932  

160530 (1996 TE16)          Discovered 1996-Oct-04 by Spacewatch at Kitt Peak
Reference: 20070828/Numbers.arcLast Updated: 2007-08-30

[ show close-approach data ]
Alternate Designations
 1996 TE16 = 2007 AP22 
Ephemeris | Orbit Diagram | Orbital Elements | Mission Design | Physical Parameters | Discovery Circumstances | Close-Approach Data ]
ABOUT SSD CREDITS/AWARDS PRIVACY/COPYRIGHT GLOSSARY LINKS
FirstGov 2021-Apr-19 23:14 UT
(server date/time)  
NASA Home Page
Site Manager:   Ryan S. Park
Webmaster  Alan B. Chamberlin